Hourly Data Report for November 07, 2016

All times are specified in Local Standard Time (LST). Add 1 hour to adjust for Daylight Saving Time where and when it is observed.

VICTORIA UNIVERSITY CS
BRITISH COLUMBIA

48°27'25.200" N
123°18'16.600" W
60.10 m
1018598
71783
WYJ

Download Data

Hourly Data (November 2016)
Hourly Data Report for November 7, 2016
TIME Temp Definition
°C
Dew Point Definition
°C
Rel Hum Definition
%
Wind Dir Definition
10's deg

Wind Spd Definition
km/h
Visibility Definition
km
Stn Press Definition
kPa
Hmdx Definition


Wind Chill Definition


Weather Definition


00:00 11.0 9.6 91 13 2   100.76     LegendNANA
01:00 10.4 9.5 94 0 1   100.74     LegendNANA
02:00 11.3 9.6 89 13 3   100.69     LegendNANA
03:00 11.3 9.7 90 15 8   100.74     LegendNANA
04:00 11.4 9.7 89 15 4   100.77     LegendNANA
05:00 11.2 9.9 92 14 6   100.82     LegendNANA
06:00 11.5 10.0 90 14 5   100.83     LegendNANA
07:00 11.2 10.1 93 12 4   100.88     LegendNANA
08:00 11.4 9.9 91 13 5   100.94     LegendNANA
09:00 11.6 9.9 90 13 4   100.98     LegendNANA
10:00 12.5 9.9 84 14 4   101.08     LegendNANA
11:00 13.2 10.1 82 9 5   101.07     LegendNANA
12:00 13.7 9.5 76 8 6   101.05     LegendNANA
13:00 12.6 9.9 83 10 1   101.08     LegendNANA
14:00 12.8 9.8 82 12 2   101.11     LegendNANA
15:00 13.0 9.7 80 2 9   100.99     LegendNANA
16:00 12.5 9.5 82 1 11   100.98     LegendNANA
17:00 11.9 9.8 87 36 7   100.96     LegendNANA
18:00 12.0 9.6 85 36 9   100.93     LegendNANA
19:00 12.1 9.8 86 34 6   100.96     LegendNANA
20:00 12.8 9.7 81 3 5   100.93     LegendNANA
21:00 12.6 9.8 83 4 3   100.93     LegendNANA
22:00 12.6 9.8 83 9 4   100.89     LegendNANA
23:00 12.8 9.9 83 9 4   100.84     LegendNANA

Notes on Data Quality.

Legend

  • E = Estimated
  • M = Missing
  • NA = Not Available
Date modified: